Date String (YYYY-MM-DD hh:mm:ss) UTC,Instrument flags,absolute air pressure of the measurement (hPa),sample flow rate (lpm),inlet stack bypass flow (lpm),air temperature of the measurement (°C),ambient temperature measured by the external sensor (°C),aerosol sample conditioner tube jacket temperature (°C),OPC LED temperature (°C),internal box temperature (°C),relative humidity of the measurement (%),span deviation,mass concentration of particles derived from Lorenz-Mie calculation of OPC scattering (μg/m³),mass concentration of particles derived from Lorenz-Mie calculation of OPC scattering (μg/m³),mass concentration of particles derived from Lorenz-Mie calculation of OPC scattering (μg/m³)
DateTimeUTC,F1_M11,P_M11,Q1_M11,Q2_M11,T1_M11,T2_M11,T3_M11,T4_M11,T5_M11,U1_M11,ZSPAN_M11,X0_M11,X2_M11,X1_M11
2023-07-22 08:00:00,SystemResetWarning,0836.1,5.01,000.00,029.9,025.1,000.0,038.3,030.9,26.3,0000.0,0008.96,0005.12,0004.75
2023-07-22 08:01:00,SystemResetWarning,0836.1,5.01,000.00,029.7,025.3,000.0,038.3,030.6,28.2,0000.0,0008.68,0005.19,0004.81
2023-07-22 08:02:00,SystemResetWarning,0836.1,4.99,000.00,029.6,025.7,000.0,038.3,030.7,29.1,0000.0,0008.54,0005.22,0004.83
2023-07-22 08:03:00,SystemResetWarning,0836.1,5.00,000.00,029.6,026.1,000.0,038.2,030.8,29.5,0000.0,0008.56,0005.21,0004.81
2023-07-22 08:04:00,SystemResetWarning,0836.1,5.00,000.00,029.5,026.5,000.0,038.2,030.9,29.9,0000.0,0008.46,0005.19,0004.80
2023-07-22 08:05:00,SystemResetWarning,0836.1,4.99,000.00,029.5,026.8,000.0,038.2,030.9,30.4,0000.0,0008.44,0005.17,0004.79
2023-07-22 08:06:00,SystemResetWarning,0836.1,4.99,000.00,029.5,027.0,000.0,038.2,030.9,30.5,0000.0,0008.55,0005.17,0004.78
2023-07-22 08:07:00,SystemResetWarning,0836.1,5.00,000.00,029.5,027.2,000.0,038.2,031.0,30.7,-000.1,0008.52,0005.15,0004.77
2023-07-22 08:08:00,SystemResetWarning,0836.1,5.00,000.00,029.5,027.4,000.0,038.1,031.0,31.0,0000.0,0008.50,0005.11,0004.75
2023-07-22 08:09:00,SystemResetWarning,0836.1,5.01,000.00,029.5,027.6,000.0,038.1,031.0,31.2,0000.0,0008.48,0005.07,0004.72
2023-07-22 08:10:00,SystemResetWarning,0836.1,5.00,000.00,029.5,027.7,000.0,038.1,031.1,31.4,0000.0,0008.37,0005.04,0004.68
2023-07-22 08:11:00,SystemResetWarning,0836.1,5.00,000.00,029.5,027.8,000.0,038.1,031.1,31.8,0000.0,0007.80,0004.97,0004.61
2023-07-22 08:12:00,SystemResetWarning,0836.1,5.00,000.00,029.6,027.9,000.0,038.1,031.1,32.7,0000.0,0007.65,0004.86,0004.52
2023-07-22 08:13:00,SystemResetWarning,0836.1,4.99,000.00,029.6,028.0,000.0,038.1,031.1,32.8,0000.0,0007.39,0004.77,0004.47
2023-07-22 08:14:00,SystemResetWarning,0836.1,4.99,000.00,029.6,028.0,000.0,038.1,031.1,32.9,0000.0,0007.46,0004.77,0004.50
2023-07-22 08:15:00,SystemResetWarning,0836.2,5.00,000.00,029.6,028.1,000.0,038.1,031.1,32.9,0000.0,0008.51,0004.85,0004.56
2023-07-22 08:16:00,SystemResetWarning,0836.2,5.01,000.00,029.6,028.1,000.0,038.1,031.1,32.8,0000.0,0008.82,0004.98,0004.63
2023-07-22 08:17:00,SystemResetWarning,0836.2,5.01,000.00,029.6,028.1,000.0,038.1,031.2,32.6,0000.0,0009.03,0005.06,0004.70
2023-07-22 08:18:00,SystemResetWarning,0836.2,5.00,000.00,029.6,028.2,000.0,038.1,031.2,32.5,0000.0,0009.19,0005.17,0004.77
2023-07-22 08:19:00,SystemResetWarning,0836.2,4.99,000.00,029.6,028.2,000.0,038.1,031.2,32.5,0000.0,0009.33,0005.30,0004.85
2023-07-22 08:20:00,SystemResetWarning,0836.1,5.01,000.00,029.7,028.2,000.0,038.1,031.2,32.2,0000.0,0009.42,0005.41,0004.94
2023-07-22 08:21:00,SystemResetWarning,0836.1,5.02,000.00,029.7,028.3,000.0,038.1,031.2,31.4,0000.0,0009.50,0005.50,0005.05
2023-07-22 08:22:00,SystemResetWarning,0836.1,5.00,000.00,029.7,028.3,000.0,038.1,031.2,29.2,0000.0,0010.50,0005.61,0005.14
2023-07-22 08:23:00,SystemResetWarning,0836.0,4.99,000.00,029.7,028.3,000.0,038.2,031.2,27.1,0000.0,0010.85,0005.72,0005.26
2023-07-22 08:24:00,SystemResetWarning,0835.9,4.99,000.00,029.7,028.2,000.0,038.2,031.3,26.9,0000.0,0011.49,0005.87,0005.36
2023-07-22 08:25:00,SystemResetWarning,0835.9,5.01,000.00,029.7,028.3,000.0,038.2,031.3,26.8,0000.0,0011.95,0005.96,0005.42
2023-07-22 08:26:00,SystemResetWarning,0836.0,4.99,000.00,029.7,028.3,000.0,038.2,031.3,26.8,0000.0,0011.04,0006.03,0005.46
2023-07-22 08:27:00,SystemResetWarning,0835.9,5.01,000.00,029.7,028.3,000.0,038.2,031.3,26.4,0000.0,0010.94,0006.02,0005.46
2023-07-22 08:28:00,SystemResetWarning,0836.0,5.00,000.00,029.7,028.3,000.0,038.2,031.3,26.3,0000.0,0010.69,0006.03,0005.47
2023-07-22 08:29:00,SystemResetWarning,0836.0,5.00,000.00,029.7,028.3,000.0,038.2,031.3,26.1,0000.0,0010.77,0006.05,0005.49
2023-07-22 08:30:00,SystemResetWarning,0836.0,4.99,000.00,029.8,028.4,000.0,038.2,031.3,26.0,0000.0,0010.88,0006.05,0005.51
2023-07-22 08:31:00,SystemResetWarning,0836.1,5.01,000.00,029.8,028.4,000.0,038.2,031.3,26.0,0000.0,0011.31,0006.08,0005.52
2023-07-22 08:32:00,SystemResetWarning,0836.1,5.00,000.00,029.8,028.4,000.0,038.2,031.3,26.5,0000.0,0012.03,0006.11,0005.53
2023-07-22 08:33:00,SystemResetWarning,0836.1,5.01,000.00,029.8,028.4,000.0,038.2,031.4,26.3,0000.0,0011.19,0006.09,0005.54
2023-07-22 08:34:00,SystemResetWarning,0836.1,4.98,000.00,029.8,028.5,000.0,038.2,031.4,26.3,0000.0,0011.33,0006.10,0005.53
2023-07-22 08:35:00,SystemResetWarning,0836.1,5.00,000.00,029.8,028.5,000.0,038.3,031.4,26.1,0000.0,0011.24,0006.08,0005.49
2023-07-22 08:36:00,SystemResetWarning,0836.0,5.00,000.00,029.8,028.5,000.0,038.3,031.4,26.7,0000.0,0011.11,0005.96,0005.40
2023-07-22 08:37:00,SystemResetWarning,0835.9,5.00,000.00,029.9,028.5,000.0,038.3,031.4,27.1,0000.0,0010.94,0005.85,0005.32
2023-07-22 08:38:00,SystemResetWarning,0835.9,5.00,000.00,029.9,028.6,000.0,038.3,031.4,26.6,0000.0,0010.78,0005.73,0005.23
2023-07-22 08:39:00,SystemResetWarning,0835.9,5.00,000.00,029.9,028.6,000.0,038.3,031.4,26.1,0000.0,0010.64,0005.61,0005.15
2023-07-22 08:40:00,SystemResetWarning,0835.9,5.00,000.00,029.9,028.6,000.0,038.3,031.4,25.9,0000.0,0010.40,0005.50,0005.07
2023-07-22 08:41:00,SystemResetWarning,0835.9,5.01,000.00,029.9,028.6,000.0,038.4,031.4,26.4,0000.0,0010.34,0005.43,0004.99
2023-07-22 08:42:00,SystemResetWarning,0835.9,5.00,000.00,029.9,028.6,000.0,038.4,031.4,26.3,0000.0,0009.95,0005.31,0004.91
2023-07-22 08:43:00,SystemResetWarning,0835.9,5.00,000.00,029.9,028.6,000.0,038.4,031.5,26.6,0000.0,0009.23,0005.24,0004.85
2023-07-22 08:44:00,SystemResetWarning,0835.9,5.00,000.00,029.9,028.6,000.0,038.4,031.5,26.4,0000.0,0009.80,0005.18,0004.78
2023-07-22 08:45:00,SystemResetWarning,0835.9,5.00,000.00,030.0,028.6,000.0,038.4,031.5,25.8,0000.0,0009.41,0005.11,0004.73
2023-07-22 08:46:00,SystemResetWarning,0835.9,5.00,000.00,030.0,028.6,000.0,038.4,031.5,25.5,0000.0,0008.93,0005.04,0004.70
2023-07-22 08:47:00,SystemResetWarning,0835.9,5.00,000.00,030.0,028.7,000.0,038.4,031.5,24.5,0000.0,0008.81,0005.09,0004.72
2023-07-22 08:48:00,SystemResetWarning,0835.9,5.00,000.00,030.0,028.7,000.0,038.4,031.5,24.0,0000.0,0010.07,0005.12,0004.74
2023-07-22 08:49:00,SystemResetWarning,0835.9,5.00,000.00,030.0,028.7,000.0,038.4,031.5,23.8,0000.0,0010.81,0005.16,0004.78
2023-07-22 08:50:00,SystemResetWarning,0835.9,5.00,000.00,030.0,028.7,000.0,038.5,031.5,23.6,0000.0,0010.88,0005.20,0004.81
2023-07-22 08:51:00,SystemResetWarning,0835.9,5.00,000.00,030.0,028.7,000.0,038.5,031.5,23.6,0000.0,0010.99,0005.22,0004.83
2023-07-22 08:52:00,SystemResetWarning,0835.9,5.01,000.00,030.0,028.7,000.0,038.5,031.5,24.1,0000.0,0010.92,0005.26,0004.85
2023-07-22 08:53:00,SystemResetWarning,0835.9,5.00,000.00,030.0,028.7,000.0,038.5,031.6,24.4,0000.0,0010.95,0005.30,0004.87
2023-07-22 08:54:00,SystemResetWarning,0835.9,5.00,000.00,030.1,028.7,000.0,038.5,031.6,24.1,0000.0,0010.96,0005.30,0004.87
2023-07-22 08:55:00,SystemResetWarning,0835.9,5.00,000.00,030.1,028.7,000.0,038.5,031.6,23.8,0000.0,0010.24,0005.32,0004.89
2023-07-22 08:56:00,SystemResetWarning,0835.9,4.99,000.00,030.1,028.7,000.0,038.5,031.6,23.6,0000.0,0010.36,0005.34,0004.90
2023-07-22 08:57:00,SystemResetWarning,0835.8,5.00,000.00,030.1,028.7,000.0,038.5,031.6,24.2,0000.0,0010.64,0005.38,0004.91
2023-07-22 08:58:00,SystemResetWarning,0835.8,5.00,000.00,030.1,028.7,000.0,038.5,031.6,24.1,0000.0,0010.62,0005.37,0004.92
2023-07-22 08:59:00,SystemResetWarning,0835.8,5.00,000.00,030.1,028.7,000.0,038.5,031.6,24.8,0000.0,0010.36,0005.34,0004.91
